Other Public Products
Issued by NWS Grand Forks, ND

Current Version | Previous Version | Text Only | Print | Product List | Glossary On
Versions: 1 2 3 4 5 6 7 8 9 10 11 12 13 14 15 16 17 18 19 20 21 22 23 24 25 26 27 28 29 30 31 32 33 34 35 36 37 38 39 40 41 42 43 44 45 46 47 48 49 50
000
FPUS83 KFGF 290931
OPUFGF
PRAIRIE TO PINES WEATHER ROUNDUP
NATIONAL WEATHER SERVICE EASTERN NORTH DAKOTA/GRAND FORKS ND
400 AM CDT MON AUG 29 2016

 **SATELLITE DATA USED TO AUGMENT SKY COVER AT AUTOMATED STATIONS**
 *****  WEATHER ACROSS EASTERN NORTH DAKOTA  *****

CITY           SKY/WX    TMP DP  RH WIND       PRES   REMARKS
GRAND FORKS    FAIR      66  62  87 S5        30.00S
GRAND FORKS AF FAIR      64  63  94 SE8       29.98F
GRAND CITY NWS   N/A     66 N/A N/A S9          N/A
BUXTON           N/A     67  66  98 CALM        N/A
DEVILS LAKE    FAIR      65  61  87 N15       30.08R
FARGO          FAIR      73  69  87 SE10      30.00R
WAHPETON ARPT  FAIR      70  68  94 SE7       30.02S
$$

 *****  WEATHER ACROSS CENTRAL AND WESTERN NORTH DAKOTA  *****

CITY           SKY/WX    TMP DP  RH WIND       PRES   REMARKS
JAMESTOWN      FAIR      63  61  93 N3        30.04R
BISMARCK       PTCLDY    69  54  58 N7        30.11R
MINOT          FAIR      59  52  77 NW10      30.15R
MINOT AFB      FAIR      59  50  72 NW18      30.14R HAZE
GARRISON         N/A     58  55  90 N6        30.14R
WILLISTON      MOCLDY    58  45  62 N13       30.22R
DICKINSON      MOCLDY    65  49  56 NE16      30.15R
HETTINGER      PTCLDY    67  52  58 N13       30.16R
$$

 *****  OTHER OBSERVATIONS NORTHEAST NORTH DAKOTA  *****

CITY           SKY/WX    TMP DP  RH WIND       PRES   REMARKS
WALHALLA       FAIR      64  64 100 W10       30.04R
LANGDON        FAIR      61  59  94 NW8       30.09R
CAVALIER       FAIR      64  61  88 NW13      30.03R
GRAFTON        CLOUDY    68  66  94 NW9       30.03R
CANDO          FAIR      59  59 100 NW7       30.12R
FORT TOTTEN      N/A     66  62  86 N7        29.95
ROLLA          FAIR      57  54  88 NW17      30.13R
RUGBY          FAIR      55  55 100 N6        30.12R
 ***** THE ABOVE OBSERVATIONS ARE NON NWS ARE NOT QUALITY
        CONTROLLED AND MAY MIS-REPORT RAIN FOR SNOW...
$$

 *****  OTHER OBSERVATIONS SOUTHEAST NORTH DAKOTA *****

CITY           SKY/WX    TMP DP  RH WIND       PRES   REMARKS
COOPERSTOWN    NOT AVBL
VALLEY CITY    FAIR      66  66 100 W3        30.04R
OAKES            N/A    N/A N/A N/A MISG        N/A
GWINNER        FAIR      72  70  94 W9        30.03R
SHEYENNE NWR     N/A     70  67  90 SE3       29.95S
BUFFALO          N/A     68  66  91 SW3         N/A
WYNDMERE         N/A     70  70 100 CALM        N/A
 ***** THE ABOVE OBSERVATIONS ARE NON NWS ARE NOT QUALITY
       CONTROLLED AND MAY MIS-REPORT RAIN FOR SNOW...
$$

  *****  WEATHER ACROSS NORTHERN MINNESOTA  *****

CITY           SKY/WX    TMP DP  RH WIND       PRES   REMARKS
FLAG ISLAND    CLOUDY    66  64  94 W5        30.07R
WARROAD        MOCLDY    64  61  88 NW7G17    30.08R
ROSEAU         MOCLDY    64  61  88 N8        30.07R
HALLOCK        FAIR      66  64  94 N5        30.02R
THF RVR FALLS  FAIR      65  62  90 S5        30.02S
HALSTAD          N/A     67  64  90 S10         N/A
FOSSTON        MOCLDY    64  63  94 SE12      30.05F
BAUDETTE       CLOUDY    65  61  87 S10G22    30.02F
WASKISH        FAIR      63  63 100 SE12G17   30.06F
CROOKSTON      FAIR      66  64  94 S6        30.01F
$$
  *****  WEATHER ACROSS CENTRAL AND WEST MINNESOTA  *****

CITY           SKY/WX    TMP DP  RH WIND       PRES   REMARKS
BEMIDJI        FAIR      63  62  96 S20       30.10F
PARK RAPIDS    CLOUDY    64  61  90 E9        30.11R
WADENA         MOCLDY    63  63 100 SE12      30.12S THUNDER
DETROIT LAKES  FAIR      66  63  88 S5        30.07F
MOORHEAD       FAIR      70  66  88 SE7       30.02R
FERGUS FALLS   FAIR      70  66  88 SE7       30.06S
ELBOW LAKE     CLOUDY    74  71  91 SE9       30.06R
MORRIS MN      LGT RAIN  72  70  94 S6        30.05R
STAPLES        TSTM      63  63 100 S8        30.15F
WHEATON        FAIR      73  72  94 S6        30.03R
$$
  *****  WEATHER ELSEWHERE ACROSS MINNESOTA  *****

CITY           SKY/WX    TMP DP  RH WIND       PRES   REMARKS
DULUTH         HVY RAIN  62  62 100 N16G25    30.21R FOG
INTRNTL FALLS  MOCLDY    63  61  93 VRB6      30.05F
ELY            RAIN      61  61 100 S5        30.15F
CLOQUET        TSTM      64  63  94 N24G37    30.19R VSB 1
BRAINERD       LGT RAIN  64  63  96 VRB3      30.14F
HIBBING        RAIN      60  60 100 SE7       30.18F FOG
ALEXANDRIA     CLOUDY    71  66  84 NE13      30.12R
SAINT CLOUD    FAIR      69  69 100 SE5       30.11R
MINNEAPOLIS    FAIR      72  69  90 SE6       30.14R
$$

  *****  WEATHER ACROSS SOUTH DAKOTA  *****

CITY           SKY/WX    TMP DP  RH WIND       PRES   REMARKS
SIOUX FALLS    FAIR      70  32  24 S13       30.13R
BROOKINGS        N/A    N/A N/A N/A MISG        N/A
WATERTOWN      FAIR      71  68  90 S9        30.08S
HURON          CLEAR     71  69  93 S9        30.05R
SISSETON         N/A     78  69  73 W18G28    29.98F
ABERDEEN       CLEAR     70  67  90 S8        30.02R
MITCHELL       CLEAR     69  67  93 SE9       30.08R
PIERRE         CLEAR     70  58  65 S8        30.02R
MOBRIDGE       CLEAR     66  57  72 NW3       30.03R
RAPID CITY     CLEAR     63  47  55 NW10      30.11R
$$

  *****  SOME WEATHER IN NEARBY STATES *****

CITY           SKY/WX    TMP DP  RH WIND       PRES   REMARKS
GLASGOW MT     CLEAR     55  43  63 CALM      30.24R
GREAT FALLS MT PTCLDY    51  43  74 CALM      30.24S
CHEYENNE WY    CLOUDY    59  43  55 W8        30.28S
SCOTTSBLUFF NE PTCLDY    57  52  83 E3        30.17R
OMAHA NE       CLOUDY    71  66  84 SE5       30.14S
DES MOINES IA  CLOUDY    73  69  87 S3        30.14S
DAVENPORT IA   FAIR      68  67  96 E5        30.19R FOG
CHICAGO IL     FAIR      72  68  87 NE3       30.21R
EAU CLAIRE WI  MOCLDY    66  65  96 E3        30.19R
LA CROSSE WI   FAIR      68  67  96 E3        30.18R
$$

  *****  SOME NATIONAL WEATHER *****

CITY           SKY/WX    TMP DP  RH WIND       PRES   REMARKS
LA GUARDIA NY  MOCLDY    77  64  64 SW6       30.10F
RALEIGH NC     MOCLDY    72  69  90 N3        30.13F
ATLANTA GA     MOCLDY    76  67  73 E8        30.12R
NEW ORLEANS LA MOCLDY    82  74  76 E7        29.94S
OKLAHOMA CITY  FAIR      71  67  87 SE6       30.08S
ALBUQUERQUE NM CLOUDY    63  44  50 NE7       30.24S
SALT LAKE CITY CLEAR     66  39  37 S6        30.17R
LOS ANGELES CA CLEAR     68  61  78 VRB3      29.97S
BOISE ID       PTCLDY    70  40  33 SE12      30.06R
SEATTLE WA     CLEAR     56  52  86 CALM      30.07R
$$

*** WEATHER ACROSS MANITOBA...SASKATCHEWAN AND ONTARIO ***
                ***ONTARIO***

CITY           SKY/WX    TMP DP  RH WIND       PRES   REMARKS
GERALDTON      MOCLDY    54  54 100 E3        30.21F
THUNDER BAY    LGT RAIN  61  61 100 NE2       30.18S
SIOUX LOOKOUT  CLOUDY    59  55  88 SE5       30.07R
TORONTO        CLEAR     64  57  77 NW7       30.21R
BIG TROUT LK   CLEAR     61  55  82 S9        30.03F
PICKLE LAKE    NOT AVBL
DRYDEN         MOCLDY    63  59  88 SE7       30.04S
KENORA         TSTM      63  61  94 NE6       30.08F
$$
                *** MANITOBA***

CITY           SKY/WX    TMP DP  RH WIND       PRES   REMARKS
BRANDON        PTCLDY    54  50  87 W9        30.12R
DAUPHIN        CLEAR     54  50  87 W12       30.10R
ISLAND LAKE    MOCLDY    64  63  94 S6        29.92F
PILOT MOUND      N/A     59  57  94 W7          N/A
THE PAS        CLOUDY    54  45  71 W12G20    30.02R
THOMPSON       MOCLDY    57  52  82 W15G21    29.86R
WINNIPEG       MOCLDY    63  61  94 NW7       30.02R
LYNN LAKE      CLOUDY    48  46  93 MISG      29.81S
CHURCHILL      LGT RAIN  50  48  93 E6        29.91F
GILLAM         CLOUDY    61  59  94 SE6       29.85F
$$
                ***SASKATCHEWAN***

CITY           SKY/WX    TMP DP  RH WIND       PRES   REMARKS
ESTEVAN        CLEAR     46  45  93 NW9       30.20R
KINDERSLEY     CLEAR     41  39  93 S6        30.26R
LLOYDMINSTER   CLEAR     39  36  87 W7        30.23R
PRINCE ALBERT  CLEAR     46  41  81 W7        30.17R
REGINA         PTCLDY    43  43 100 NW2       30.23R
YORKTON        CLOUDY    52  48  87 W9        30.16R   C1F1C2F2C3F3C4F4C5F5C6F6C7F7C8F8C9F9CaFaCbFbCcFcCdFdCe!


USA.gov is the U.S. government's official web portal to all federal, state and local government web resources and services.